Weather History for LHBP - December, 2013

Change the Weather History Date:

Tuesday, December 24, 2013

  Actual Average Record
Temperature  
Mean Temperature 38 °F -  
Max Temperature 42 °F 35 °F 50 °F (2010)
Min Temperature 33 °F 22 °F 1 °F (2001)
Degree Days  
Heating Degree Days 28    
Moisture  
Dew Point 35 °F    
Average Humidity 95    
Maximum Humidity 100    
Minimum Humidity 81    
Precipitation  
Precipitation 0.00 in - - ()
Sea Level Pressure  
Sea Level Pressure 30.15 in    
Wind  
Wind Speed 7 mph ()    
Max Wind Speed 12 mph    
Max Gust Speed -    
Visibility 1.3 miles    
Events Fog    
Averages and records for this station are not official NWS values.
T = Trace of Precipitation, MM = Missing Value Source: Averaged Metar Reports

Daily Weather History Graph

Daily Weather History Graph

Search for Another Location

Airport or City:

Trip Planner

Search our weather history database for the weather conditions in past years. The results will help you decide how hot, cold, wet, or windy it might be!

Date:

Astronomy

Dec. 24, 2013 Rise Set
Actual Time 7:28 AM CET 3:56 PM CET
Civil Twilight 6:53 AM CET 4:32 PM CET
Nautical Twilight 6:13 AM CET 5:11 PM CET
Astronomical Twilight 5:36 AM CET 5:48 PM CET
Moon 11:14 PM CET (12/24) 10:48 AM CET (12/24)
Length of Visible Light 9h 39m
Length of Day
8h 27m
Waning Gibbous, 61% of the Moon is Illuminated
Dec 24
Waning Gibbous
Dec 25
Last Quarter
Jan 1
New
Jan 8
First Quarter
Jan 16
Full

Hourly Weather History & Observations

Time (CET) Temp. Windchill Dew Point Humidity Pressure Visibility Wind Dir Wind Speed Gust Speed Precip Events Conditions
12:00 AM 35.6 °F 30.7 °F 35.6 °F 100% 30.30 in 0.2 mi East 5.8 mph - N/A Fog Fog
12:30 AM 35.6 °F 29.9 °F 35.6 °F 100% 30.27 in 0.2 mi East 6.9 mph - N/A Fog Fog
1:00 AM 35.6 °F 29.9 °F 35.6 °F 100% 30.27 in 0.3 mi ESE 6.9 mph - N/A Fog Fog
1:30 AM 35.6 °F 29.9 °F 35.6 °F 100% 30.27 in 0.3 mi ENE 6.9 mph - N/A Fog Fog
2:00 AM 35.6 °F 31.7 °F 35.6 °F 100% 30.27 in 0.4 mi NE 4.6 mph - N/A Fog Light Fog
2:30 AM 35.6 °F 29.9 °F 35.6 °F 100% 30.27 in 0.4 mi ENE 6.9 mph - N/A Fog Light Fog
3:00 AM 35.6 °F 30.7 °F 35.6 °F 100% 30.27 in 0.4 mi ENE 5.8 mph - N/A Fog Light Fog
3:30 AM 35.6 °F 29.2 °F 35.6 °F 100% 30.27 in 0.1 mi East 8.1 mph - N/A Fog Light Fog
4:00 AM 35.6 °F 29.2 °F 35.6 °F 100% 30.24 in 0.1 mi East 8.1 mph - N/A Fog Light Fog
4:30 AM 37.4 °F 30.8 °F 37.4 °F 100% 30.24 in 0.1 mi East 9.2 mph - N/A Fog Light Fog
5:00 AM 37.4 °F 31.4 °F 37.4 °F 100% 30.21 in 0.1 mi East 8.1 mph - N/A Fog Light Fog
5:30 AM 37.4 °F 30.3 °F 37.4 °F 100% 30.21 in 0.1 mi East 10.4 mph - N/A Fog Light Fog
6:00 AM 37.4 °F 30.8 °F 37.4 °F 100% 30.21 in 0.1 mi East 9.2 mph - N/A Fog Light Fog
6:30 AM 37.4 °F 31.4 °F 37.4 °F 100% 30.21 in 0.1 mi East 8.1 mph - N/A Fog Light Fog
7:00 AM 37.4 °F 32.8 °F 37.4 °F 100% 30.21 in 0.1 mi East 5.8 mph - N/A Fog Light Fog
7:30 AM 37.4 °F 32.1 °F 37.4 °F 100% 30.21 in 0.1 mi East 6.9 mph - N/A Fog Fog
8:00 AM 37.4 °F 32.1 °F 37.4 °F 100% 30.21 in 0.1 mi East 6.9 mph - N/A Fog Fog
8:30 AM 37.4 °F 32.1 °F 37.4 °F 100% 30.21 in 0.2 mi East 6.9 mph - N/A Fog Fog
9:00 AM 37.4 °F 31.4 °F 37.4 °F 100% 30.21 in 0.2 mi East 8.1 mph - N/A Fog Fog
9:30 AM 37.4 °F 30.8 °F 37.4 °F 100% 30.21 in 0.2 mi ESE 9.2 mph - N/A Fog Fog
10:00 AM 37.4 °F 31.4 °F 37.4 °F 100% 30.21 in 1.0 mi ESE 8.1 mph - N/A   Mostly Cloudy
10:30 AM 37.4 °F 30.3 °F 37.4 °F 100% 30.18 in 1.5 mi East 10.4 mph - N/A   Mostly Cloudy
11:00 AM 39.2 °F 33.0 °F 39.2 °F 100% 30.18 in 1.7 mi ESE 9.2 mph - N/A   Scattered Clouds
11:30 AM 39.2 °F 33.6 °F 39.2 °F 100% 30.18 in 1.9 mi East 8.1 mph - N/A   Scattered Clouds
12:00 PM 39.2 °F 32.5 °F 39.2 °F 100% 30.15 in 1.9 mi East 10.4 mph - N/A   Scattered Clouds
12:30 PM 39.2 °F 32.0 °F 37.4 °F 93% 30.15 in 1.9 mi East 11.5 mph - N/A   Scattered Clouds
1:00 PM 39.2 °F 33.0 °F 37.4 °F 93% 30.12 in 2.5 mi East 9.2 mph - N/A   Scattered Clouds
1:30 PM 41.0 °F 35.2 °F 37.4 °F 87% 30.12 in 2.5 mi East 9.2 mph - N/A   Partly Cloudy
2:00 PM 41.0 °F 35.8 °F 37.4 °F 87% 30.12 in 3.7 mi East 8.1 mph - N/A   Partly Cloudy
2:30 PM 42.8 °F 37.5 °F 37.4 °F 81% 30.09 in 3.7 mi East 9.2 mph - N/A   Unknown
3:00 PM 42.8 °F 38.6 °F 37.4 °F 81% 30.09 in 3.7 mi East 6.9 mph - N/A   Unknown
3:30 PM 41.0 °F 35.8 °F 37.4 °F 87% 30.09 in 3.7 mi East 8.1 mph - N/A   Unknown
4:00 PM 39.2 °F 37.0 °F 35.6 °F 87% 30.09 in 3.7 mi Variable 3.5 mph - N/A   Unknown
4:30 PM 37.4 °F 33.8 °F 33.8 °F 87% 30.09 in 5.0 mi ENE 4.6 mph - N/A   Unknown
5:00 PM 35.6 °F 32.8 °F 33.8 °F 93% 30.06 in 5.0 mi Variable 3.5 mph - N/A   Unknown
5:30 PM 39.2 °F 32.5 °F 33.8 °F 81% 30.06 in - East 10.4 mph - N/A   Clear
6:00 PM 35.6 °F 31.7 °F 32.0 °F 87% 30.06 in - ESE 4.6 mph - N/A   Clear
6:30 PM 35.6 °F 31.7 °F 32.0 °F 87% 30.06 in - East 4.6 mph - N/A   Clear
7:00 PM 35.6 °F 29.2 °F 33.8 °F 93% 30.06 in - East 8.1 mph - N/A   Clear
7:30 PM 33.8 °F 28.6 °F 32.0 °F 93% 30.06 in - East 5.8 mph - N/A   Clear
8:00 PM 33.8 °F 28.6 °F 32.0 °F 93% 30.04 in - East 5.8 mph - N/A   Clear
8:30 PM 33.8 °F 29.6 °F 30.2 °F 87% 30.06 in - ESE 4.6 mph - N/A   Clear
9:00 PM 35.6 °F 28.6 °F 32.0 °F 87% 30.04 in - East 9.2 mph - N/A   Clear
9:30 PM 33.8 °F 25.8 °F 30.2 °F 87% 30.04 in - East 10.4 mph - N/A   Clear
10:00 PM 33.8 °F 28.6 °F 30.2 °F 87% 30.04 in - East 5.8 mph - N/A   Clear
10:30 PM 33.8 °F 25.8 °F 32.0 °F 93% 30.04 in - ESE 10.4 mph - N/A   Clear
11:00 PM 33.8 °F 27.0 °F 32.0 °F 93% 30.01 in - SE 8.1 mph - N/A   Clear
11:30 PM 33.8 °F 26.4 °F 32.0 °F 93% 30.01 in - ESE 9.2 mph - N/A   Clear